sat.trackr.live / text

‹ back to catalog

STARLINK-5831

NORAD 57332 · 2023-099E

PAYLOAD ACTIVE UNKNOWN

§ Identity

Operator
Country
US
Launch date
2023-07-16
Launch site
AFETR
Launch vehicle
Mass (kg)
RCS (m²)

Purposes: comms

External: N2YO · Heavens-Above · Gunter

§ Orbital elements

Epoch: 2026-05-24T12:19:28.972992Z

Period
94.27 min
Inclination
43.0023°
Eccentricity
0.0001490
Mean motion
15.27577090 rev/d
Perigee alt
482.0 km
Apogee alt
484.1 km
Semi-major
6,861.2 km
B*
3.3313e-5
RAAN
184.1077°
Arg perigee
272.1581°
Mean anomaly
87.9100°
Rev number
15,767

§ Raw data

STARLINK-58311 57332U 23099E   26144.51352978  .00000655  00000+0  33313-4 0  99922 57332  43.0023 184.1077 0001490 272.1581  87.9100 15.27577090157676

JSON: /api/v1/satellites/57332 · /tle

For live sub-satellite position, see the globe view (requires WebGL).

§ Visibility from observer

Set your observer location to see the next 7 days of passes ≥ 10°. The values pass through the URL so the page stays shareable.

No JS? Fill the form by hand. The geolocation button needs JavaScript.